| time (UTC) | temp C | wind direction | speed KPH | gust KPH | rain 1hr cm | rain 24hr cm | rain mn cm | humidity % | barometer mb |
| 20260507114016 | 17 | 0.0 | 4.8 | 0.00 | 0.00 | 0.00 | 91 | 1016.2 | |
| 20260507113016 | 16 | 0.0 | 3.2 | 0.00 | 0.00 | 0.00 | 91 | 1016.4 | |
| 20260507112016 | 16 | 0.0 | 1.6 | 0.00 | 0.00 | 0.00 | 90 | 1016.4 | |
| 20260507111036 | 14 | 0.0 | 4.8 | 0.00 | 0.00 | 0.00 | 90 | 1016.4 | |
| 20260507110016 | 14 | 0.0 | 1.6 | 0.00 | 0.00 | 0.00 | 90 | 1016.5 | |
| 20260507105036 | 14 | 0.0 | 1.6 | 0.00 | 0.00 | 0.00 | 90 | 1016.6 | |
| 20260507104016 | 13 | 0.0 | 1.6 | 0.00 | 0.00 | 0.00 | 91 | 1016.6 | |
| 20260507103016 | 13 | 0.0 | 0.0 | 0.00 | 0.00 | 0.00 | 91 | 1016.6 | |
| 20260507102016 | 12 | 0.0 | 0.0 | 0.00 | 0.00 | 0.00 | 91 | 1016.7 | |
| 20260507101016 | 12 | 0.0 | 1.6 | 0.00 | 0.00 | 0.00 | 91 | 1016.7 | |
| 20260507100016 | 12 | 0.0 | 0.0 | 0.00 | 0.00 | 0.00 | 91 | 1016.7 | |
| 20260507095016 | 11 | 0.0 | 0.0 | 0.00 | 0.00 | 0.00 | 91 | 1016.7 | |
| 20260507094016 | 11 | 0.0 | 1.6 | 0.00 | 0.00 | 0.00 | 91 | 1016.8 | |
| 20260507092036 | 11 | 0.0 | 1.6 | 0.00 | 0.00 | 0.00 | 91 | 1016.8 | |
| 20260507091016 | 11 | 0.0 | 1.6 | 0.00 | 0.00 | 0.00 | 91 | 1016.7 | |
| 20260507090016 | 11 | 0.0 | 0.0 | 0.00 | 0.00 | 0.00 | 91 | 1016.7 | |
| 20260507085016 | 10 | 0.0 | 0.0 | 0.00 | 0.00 | 0.00 | 91 | 1016.7 | |
| 20260507084036 | 9 | 0.0 | 0.0 | 0.00 | 0.00 | 0.00 | 91 | 1016.8 | |
| 20260507083036 | 8 | 0.0 | 1.6 | 0.00 | 0.00 | 0.00 | 91 | 1016.8 | |
| 20260507082056 | 8 | 0.0 | 0.0 | 0.00 | 0.00 | 0.00 | 91 | 1016.7 | |
| 20260507081016 | 8 | 0.0 | 0.0 | 0.00 | 0.00 | 0.00 | 91 | 1016.7 | |
| 20260507080016 | 8 | 0.0 | 0.0 | 0.00 | 0.00 | 0.00 | 91 | 1016.7 | |
| 20260507075016 | 8 | 0.0 | 1.6 | 0.00 | 0.00 | 0.00 | 91 | 1016.7 | |
| 20260507074016 | 8 | 0.0 | 1.6 | 0.00 | 0.00 | 0.00 | 91 | 1016.6 | |
| 20260507073036 | 8 | 0.0 | 0.0 | 0.00 | 0.00 | 0.00 | 91 | 1016.7 | |
| 20260507072016 | 8 | 0.0 | 0.0 | 0.00 | 0.00 | 0.00 | 92 | 1016.6 | |
| 20260507071015 | 7 | 0.0 | 0.0 | 0.00 | 0.00 | 0.00 | 92 | 1016.6 | |
| 20260507070016 | 7 | 0.0 | 0.0 | 0.00 | 0.00 | 0.00 | 92 | 1016.6 | |
| 20260507065016 | 7 | 0.0 | 0.0 | 0.00 | 0.00 | 0.00 | 92 | 1016.6 | |
| 20260507064016 | 7 | 0.0 | 1.6 | 0.00 | 0.00 | 0.00 | 91 | 1016.6 | |
| 20260507063015 | 7 | 0.0 | 1.6 | 0.00 | 0.00 | 0.00 | 91 | 1016.5 | |
| 20260507062015 | 7 | 0.0 | 0.0 | 0.00 | 0.00 | 0.00 | 91 | 1016.5 | |
| 20260507061035 | 7 | 0.0 | 0.0 | 0.00 | 0.00 | 0.00 | 91 | 1016.5 | |
| 20260507060035 | 7 | 0.0 | 0.0 | 0.00 | 0.00 | 0.00 | 91 | 1016.4 | |
| 20260507055056 | 7 | 0.0 | 0.0 | 0.00 | 0.00 | 0.00 | 91 | 1016.3 | |
| 20260507054015 | 7 | 0.0 | 0.0 | 0.00 | 0.00 | 0.00 | 91 | 1016.4 | |
| 20260507053016 | 7 | 0.0 | 0.0 | 0.00 | 0.00 | 0.00 | 91 | 1016.3 | |
| 20260507052035 | 7 | 0.0 | 0.0 | 0.00 | 0.00 | 0.00 | 91 | 1016.3 | |
| 20260507051016 | 6 | 0.0 | 0.0 | 0.00 | 0.00 | 0.00 | 91 | 1016.3 | |
| 20260507050035 | 6 | 0.0 | 0.0 | 0.00 | 0.00 | 0.00 | 91 | 1016.2 | |
| 20260507045015 | 6 | 0.0 | 0.0 | 0.00 | 0.00 | 0.00 | 91 | 1016.1 | |
| 20260507044055 | 6 | 0.0 | 0.0 | 0.00 | 0.00 | 0.00 | 91 | 1016.1 | |
| 20260507043015 | 6 | 0.0 | 0.0 | 0.00 | 0.00 | 0.00 | 91 | 1016.1 | |
| 20260507042015 | 6 | 0.0 | 0.0 | 0.00 | 0.00 | 0.00 | 91 | 1016.1 | |
| 20260507041015 | 6 | 0.0 | 0.0 | 0.00 | 0.00 | 0.00 | 91 | 1016.0 | |
| 20260507040016 | 6 | 0.0 | 0.0 | 0.00 | 0.00 | 0.00 | 91 | 1016.0 | |
| 20260507035015 | 6 | 0.0 | 0.0 | 0.00 | 0.00 | 0.00 | 91 | 1016.0 | |
| 20260507034015 | 6 | 0.0 | 0.0 | 0.00 | 0.00 | 0.00 | 91 | 1016.1 | |
| 20260507033015 | 6 | 0.0 | 0.0 | 0.00 | 0.00 | 0.00 | 91 | 1015.9 | |
| 20260507032015 | 5 | 0.0 | 0.0 | 0.00 | 0.00 | 0.00 | 90 | 1015.9 | |
| 20260507031015 | 5 | 0.0 | 0.0 | 0.00 | 0.00 | 0.00 | 90 | 1016.0 | |
| 20260507030037 | 5 | 0.0 | 0.0 | 0.00 | 0.00 | 0.00 | 90 | 1016.0 | |
| 20260507025017 | 5 | 0.0 | 0.0 | 0.00 | 0.00 | 0.00 | 90 | 1015.9 | |
| 20260507024017 | 4 | 0.0 | 0.0 | 0.00 | 0.00 | 0.00 | 90 | 1015.9 | |
| 20260507023017 | 4 | 0.0 | 0.0 | 0.00 | 0.00 | 0.00 | 90 | 1016.0 | |
| 20260507022018 | 3 | 0.0 | 0.0 | 0.00 | 0.00 | 0.00 | 90 | 1016.0 | |
| 20260507021017 | 3 | 0.0 | 0.0 | 0.00 | 0.00 | 0.00 | 90 | 1015.9 | |
| 20260507020017 | 2 | 0.0 | 0.0 | 0.00 | 0.00 | 0.00 | 90 | 1015.9 | |
| 20260507015017 | 2 | 0.0 | 0.0 | 0.00 | 0.00 | 0.00 | 90 | 1015.8 | |
| 20260507014017 | 2 | 0.0 | 0.0 | 0.00 | 0.00 | 0.00 | 90 | 1015.7 | |
| 20260507013017 | 2 | 0.0 | 0.0 | 0.00 | 0.00 | 0.00 | 90 | 1015.8 | |
| 20260507012017 | 2 | 0.0 | 0.0 | 0.00 | 0.00 | 0.00 | 90 | 1015.8 | |
| 20260507011017 | 2 | 0.0 | 0.0 | 0.00 | 0.00 | 0.00 | 90 | 1015.7 | |
| 20260507010017 | 2 | 0.0 | 0.0 | 0.00 | 0.00 | 0.00 | 90 | 1015.7 | |
| 20260507005017 | 2 | 0.0 | 0.0 | 0.00 | 0.00 | 0.00 | 90 | 1015.7 | |
| 20260507004017 | 3 | 0.0 | 0.0 | 0.00 | 0.00 | 0.00 | 90 | 1015.7 | |
| 20260507003017 | 3 | 0.0 | 0.0 | 0.00 | 0.00 | 0.00 | 90 | 1015.8 | |
| 20260507002017 | 3 | 0.0 | 0.0 | 0.00 | 0.00 | 0.00 | 90 | 1015.9 | |
| 20260507001017 | 3 | 0.0 | 0.0 | 0.00 | 0.00 | 0.00 | 90 | 1015.8 | |
| 20260507000017 | 3 | 0.0 | 0.0 | 0.00 | 0.00 | 0.00 | 90 | 1015.8 | |
| 20260506235017 | 4 | 0.0 | 0.0 | 0.00 | 0.00 | 0.00 | 90 | 1015.7 | |
| 20260506234017 | 4 | 0.0 | 0.0 | 0.00 | 0.00 | 0.00 | 90 | 1015.7 | |
| 20260506233017 | 3 | 0.0 | 0.0 | 0.00 | 0.00 | 0.00 | 90 | 1015.8 | |
| 20260506232017 | 4 | 0.0 | 0.0 | 0.00 | 0.00 | 0.00 | 90 | 1015.7 | |
| 20260506231017 | 4 | 0.0 | 0.0 | 0.00 | 0.00 | 0.00 | 90 | 1015.7 | |
| 20260506230017 | 4 | 0.0 | 0.0 | 0.00 | 0.00 | 0.00 | 90 | 1015.7 | |
| 20260506225056 | 5 | 0.0 | 0.0 | 0.00 | 0.00 | 0.00 | 90 | 1015.7 | |
| 20260506224056 | 5 | 0.0 | 0.0 | 0.00 | 0.00 | 0.00 | 90 | 1015.7 | |
| 20260506223015 | 5 | 0.0 | 0.0 | 0.00 | 0.00 | 0.00 | 90 | 1015.7 | |
| 20260506222017 | 5 | 0.0 | 0.0 | 0.00 | 0.00 | 0.00 | 90 | 1015.7 | |
| 20260506221015 | 6 | 0.0 | 0.0 | 0.00 | 0.00 | 0.00 | 90 | 1015.6 | |
| 20260506220017 | 6 | 0.0 | 0.0 | 0.00 | 0.00 | 0.00 | 90 | 1015.6 | |
| 20260506215037 | 6 | 0.0 | 1.6 | 0.00 | 0.00 | 0.00 | 90 | 1015.6 | |
| 20260506214037 | 6 | 0.0 | 1.6 | 0.00 | 0.00 | 0.00 | 90 | 1015.6 | |
| 20260506213018 | 7 | 0.0 | 3.2 | 0.00 | 0.00 | 0.00 | 90 | 1015.5 | |
| 20260506212017 | 7 | 0.0 | 1.6 | 0.00 | 0.00 | 0.00 | 90 | 1015.4 | |
| 20260506211017 | 7 | 0.0 | 1.6 | 0.00 | 0.00 | 0.00 | 90 | 1015.4 | |
| 20260506210017 | 7 | 0.0 | 1.6 | 0.00 | 0.00 | 0.00 | 90 | 1015.4 | |
| 20260506205017 | 7 | 0.0 | 1.6 | 0.00 | 0.00 | 0.00 | 90 | 1015.4 | |
| 20260506204017 | 7 | 0.0 | 3.2 | 0.00 | 0.00 | 0.00 | 90 | 1015.3 | |
| 20260506203015 | 7 | 0.0 | 1.6 | 0.00 | 0.00 | 0.00 | 90 | 1015.2 | |
| 20260506202037 | 8 | 0.0 | 3.2 | 0.00 | 0.00 | 0.00 | 90 | 1015.2 | |
| 20260506201017 | 8 | 0.0 | 1.6 | 0.00 | 0.00 | 0.00 | 90 | 1015.1 | |
| 20260506200017 | 8 | 0.0 | 4.8 | 0.00 | 0.00 | 0.00 | 90 | 1015.0 | |
| 20260506195017 | 8 | 0.0 | 4.8 | 0.00 | 0.00 | 0.00 | 90 | 1014.9 | |
| 20260506194017 | 9 | 0.0 | 4.8 | 0.00 | 0.00 | 0.00 | 90 | 1014.8 | |
| 20260506193017 | 9 | 338 | 1.6 | 9.7 | 0.00 | 0.00 | 0.00 | 89 | 1014.7 |
| 20260506192037 | 10 | 0 | 1.6 | 4.8 | 0.00 | 0.00 | 0.00 | 89 | 1014.7 |
| 20260506191017 | 10 | 0 | 1.6 | 8.0 | 0.00 | 0.00 | 0.00 | 89 | 1014.6 |
| 20260506190018 | 10 | 0 | 1.6 | 8.0 | 0.00 | 0.00 | 0.00 | 88 | 1014.5 |
| 20260506185017 | 10 | 0 | 1.6 | 9.7 | 0.00 | 0.00 | 0.00 | 88 | 1014.5 |
| 20260506184017 | 10 | 0 | 1.6 | 11.3 | 0.00 | 0.00 | 0.00 | 88 | 1014.4 |
| 20260506183017 | 11 | 338 | 1.6 | 8.0 | 0.00 | 0.00 | 0.00 | 87 | 1014.3 |
| 20260506182037 | 11 | 0 | 3.2 | 9.7 | 0.00 | 0.00 | 0.00 | 87 | 1014.2 |
| 20260506181037 | 11 | 338 | 3.2 | 9.7 | 0.00 | 0.00 | 0.00 | 87 | 1014.1 |
| 20260506180017 | 11 | 338 | 1.6 | 9.7 | 0.00 | 0.00 | 0.00 | 87 | 1014.0 |
| 20260506175016 | 11 | 338 | 1.6 | 6.4 | 0.00 | 0.00 | 0.00 | 87 | 1013.9 |
| 20260506174037 | 11 | 338 | 3.2 | 9.7 | 0.00 | 0.00 | 0.00 | 86 | 1013.9 |
| 20260506173017 | 12 | 338 | 3.2 | 14.5 | 0.00 | 0.00 | 0.00 | 83 | 1013.8 |
| 20260506172017 | 12 | 338 | 1.6 | 11.3 | 0.00 | 0.00 | 0.00 | 85 | 1013.8 |
| 20260506171017 | 12 | 338 | 1.6 | 9.7 | 0.00 | 0.00 | 0.00 | 90 | 1013.7 |
| 20260506170037 | 13 | 338 | 1.6 | 8.0 | 0.00 | 0.00 | 0.00 | 90 | 1013.8 |
| 20260506165016 | 13 | 0 | 1.6 | 8.0 | 0.00 | 0.00 | 0.00 | 91 | 1013.8 |
| 20260506164057 | 13 | 338 | 3.2 | 11.3 | 0.00 | 0.00 | 0.00 | 91 | 1013.7 |
| 20260506163017 | 12 | 0 | 1.6 | 11.3 | 0.00 | 0.00 | 0.00 | 91 | 1013.7 |
| 20260506162017 | 12 | 338 | 4.8 | 12.9 | 0.00 | 0.00 | 0.00 | 91 | 1013.8 |
| 20260506161017 | 12 | 338 | 3.2 | 12.9 | 0.00 | 0.00 | 0.00 | 92 | 1013.8 |
| 20260506160017 | 12 | 338 | 3.2 | 14.5 | 0.00 | 0.00 | 0.00 | 92 | 1013.8 |
| 20260506155016 | 12 | 0 | 1.6 | 11.3 | 0.00 | 0.00 | 0.00 | 92 | 1013.9 |
| 20260506154016 | 12 | 0 | 3.2 | 12.9 | 0.00 | 0.00 | 0.00 | 92 | 1014.0 |
| 20260506153017 | 12 | 0 | 3.2 | 12.9 | 0.00 | 0.00 | 0.00 | 92 | 1014.0 |
| 20260506152037 | 12 | 338 | 1.6 | 9.7 | 0.00 | 0.00 | 0.00 | 92 | 1014.0 |
| 20260506151017 | 12 | 0 | 1.6 | 6.4 | 0.00 | 0.00 | 0.00 | 92 | 1014.1 |
| 20260506150016 | 12 | 0 | 1.6 | 8.0 | 0.00 | 0.00 | 0.00 | 92 | 1014.1 |
| 20260506145016 | 12 | 338 | 1.6 | 11.3 | 0.00 | 0.00 | 0.00 | 92 | 1014.0 |
| 20260506144016 | 12 | 338 | 3.2 | 12.9 | 0.00 | 0.00 | 0.00 | 92 | 1014.0 |
| 20260506143037 | 12 | 338 | 1.6 | 6.4 | 0.00 | 0.00 | 0.00 | 92 | 1014.0 |
| 20260506142016 | 12 | 0 | 1.6 | 11.3 | 0.00 | 0.00 | 0.00 | 92 | 1014.0 |
| 20260506141016 | 12 | 0 | 1.6 | 12.9 | 0.00 | 0.00 | 0.00 | 92 | 1014.0 |
| 20260506140056 | 12 | 338 | 1.6 | 11.3 | 0.00 | 0.00 | 0.00 | 92 | 1014.0 |
| 20260506135016 | 12 | 338 | 3.2 | 9.7 | 0.00 | 0.00 | 0.00 | 91 | 1014.1 |
| 20260506134017 | 11 | 338 | 3.2 | 9.7 | 0.00 | 0.00 | 0.00 | 91 | 1014.1 |
| 20260506133016 | 11 | 338 | 3.2 | 14.5 | 0.00 | 0.00 | 0.00 | 91 | 1014.2 |
| 20260506132016 | 11 | 338 | 3.2 | 12.9 | 0.00 | 0.00 | 0.00 | 91 | 1014.2 |
| 20260506131016 | 11 | 0 | 3.2 | 12.9 | 0.00 | 0.00 | 0.00 | 91 | 1014.2 |
| 20260506130037 | 11 | 338 | 3.2 | 12.9 | 0.00 | 0.00 | 0.00 | 91 | 1014.3 |
| 20260506125016 | 11 | 338 | 1.6 | 9.7 | 0.00 | 0.00 | 0.00 | 91 | 1014.2 |
| 20260506124016 | 11 | 338 | 3.2 | 11.3 | 0.00 | 0.00 | 0.00 | 91 | 1014.1 |
| 20260506123016 | 12 | 338 | 3.2 | 12.9 | 0.00 | 0.00 | 0.00 | 91 | 1014.2 |
| 20260506122016 | 11 | 338 | 3.2 | 14.5 | 0.00 | 0.00 | 0.00 | 91 | 1014.2 |
| 20260506121016 | 12 | 338 | 1.6 | 9.7 | 0.00 | 0.00 | 0.00 | 91 | 1014.2 |
| 20260506120016 | 11 | 338 | 3.2 | 9.7 | 0.00 | 0.00 | 0.00 | 91 | 1014.1 |
| 20260506115016 | 11 | 0 | 3.2 | 11.3 | 0.00 | 0.00 | 0.00 | 90 | 1014.3 |